Location: Betra
(48.4113°N, 8.6634°E)
Time: 02:13:10
(UTC+00:00)

Envisat - Visible Passes

Search period start: 14 July 2024 00:00
Search period end: 24 July 2024 00:00
Orbit: 762 x 764 km, 98.3° (Epoch: 13 July)

Date Brightness Start Highest point End Pass type
(mag) Time Alt. Az. Time Alt. Az. Time Alt. Az.
14 Jul 4.2 02:10:24 10° NNE 02:15:09 39° E 02:19:53 10° SSE visible
15 Jul 5.2 01:33:49 10° NE 01:37:26 19° E 01:41:02 10° SE visible
16 Jul 3.4 02:34:24 10° NNE 02:39:28 64° ESE 02:44:29 10° S visible
17 Jul 4.6 01:57:24 10° NNE 02:01:53 31° E 02:06:20 10° SSE visible
18 Jul 5.4 01:21:13 10° NE 01:24:05 15° E 01:26:57 10° ESE visible
18 Jul 3.0 02:58:36 10° NNE 03:03:42 81° WNW 03:08:45 10° SSW visible
19 Jul 3.8 02:21:18 10° NNE 02:26:14 49° E 02:31:09 10° S visible
20 Jul 4.9 01:44:29 10° NE 01:48:35 24° E 01:52:39 10° SE visible
21 Jul 5.6 01:09:08 10° ENE 01:10:42 11° E 01:12:17 10° ESE visible
21 Jul 3.1 02:45:24 10° NNE 02:50:30 79° ESE 02:55:35 10° S visible
22 Jul 4.2 02:08:15 10° NNE 02:12:59 38° E 02:17:41 10° SSE visible
23 Jul 5.2 01:31:42 10° NE 01:35:15 19° E 01:38:47 10° SE visible
23 Jul 3.1 03:09:38 10° N 03:14:41 65° WNW 03:19:42 10° SSW visible
